Weather History for Luqa, Malta

Change the Weather History Date:

Wednesday, January 16, 2013

  Actual Average Record
Temperature  
Mean Temperature 54 °F -  
Max Temperature 57 °F 60 °F 64 °F (2002)
Min Temperature 50 °F 49 °F 44 °F (2002)
Degree Days  
Heating Degree Days 12    
Growing Degree Days 4 (Base 50)    
Moisture  
Dew Point 44 °F    
Average Humidity 66    
Maximum Humidity 82    
Minimum Humidity 42    
Precipitation  
Precipitation 0.12 in 0.10 in - ()
Sea Level Pressure  
Sea Level Pressure 29.84 in    
Wind  
Wind Speed 16 mph ()    
Max Wind Speed 26 mph    
Max Gust Speed 40 mph    
Visibility 6.9 miles    
Events Rain , Thunderstorm    
Averages and records for this station are not official NWS values.
T = Trace of Precipitation, MM = Missing Value Source: Averaged Metar Reports

Daily Weather History Graph

Daily Weather History Graph

Search for Another Location

Airport:

Trip Planner

Search our weather history database for the weather conditions in past years. The results will help you decide how hot, cold, wet, or windy it might be!

Date:

Astronomy

Jan. 16, 2013 Rise Set
Actual Time 7:11 AM CET 5:12 PM CET
Civil Twilight 6:43 AM CET 5:40 PM CET
Nautical Twilight 6:12 AM CET 6:11 PM CET
Astronomical Twilight 5:41 AM CET 6:42 PM CET
Moon 9:50 AM CET (1/16) 10:33 PM CET (1/16)
Length of Visible Light 10h 57m
Length of Day
10h 01m
Waxing Crescent, 25% of the Moon is Illuminated
Jan 16
Waxing Crescent
Jan 19
First Quarter
Jan 27
Full
Feb 3
Last Quarter
Feb 10
New

Hourly Weather History & Observations

Time (CET) Temp. Dew Point Humidity Pressure Visibility Wind Dir Wind Speed Gust Speed Precip Events Conditions
12:07 AM 50.0 °F 44.6 °F 82% 29.92 in 6.2 mi West 13.8 mph - N/A   Overcast
12:08 AM 50.0 °F 44.6 °F 82% 29.92 in 6.2 mi West 12.7 mph - N/A   Overcast
12:09 AM 50.0 °F 44.6 °F 82% 29.92 in 6.2 mi West 12.7 mph - N/A   Mostly Cloudy
12:15 AM 50.0 °F 44.6 °F 82% 29.92 in 6.2 mi West 8.1 mph - N/A   Mostly Cloudy
12:45 AM 51.8 °F 44.6 °F 76% 29.89 in 6.2 mi West 8.1 mph - N/A   Scattered Clouds
1:00 AM 52 °F 45 °F 70% 29.91 in 9 mi WSW 10.4 mph - - Rain Light Rain Showers
1:15 AM 53.6 °F 44.6 °F 72% 29.89 in 6.2 mi WSW 13.8 mph - N/A   Scattered Clouds
1:45 AM 53.6 °F 42.8 °F 67% 29.89 in 6.2 mi WSW 13.8 mph - N/A   Scattered Clouds
2:15 AM 53.6 °F 42.8 °F 67% 29.89 in - WSW 16.1 mph - N/A   Clear
2:45 AM 55.4 °F 42.8 °F 63% 29.89 in - WSW 13.8 mph 25.3 mph N/A   Clear
3:15 AM 53.6 °F 42.8 °F 67% 29.86 in - West 16.1 mph - N/A   Clear
3:45 AM 55.4 °F 42.8 °F 63% 29.86 in - West 17.3 mph - N/A   Clear
4:00 AM 55 °F 44 °F 56% 29.86 in 9 mi West 18.4 mph - -   Partly Cloudy
4:15 AM 55.4 °F 44.6 °F 67% 29.83 in 6.2 mi WSW 18.4 mph - N/A   Mostly Cloudy
4:45 AM 55.4 °F 44.6 °F 67% 29.83 in 6.2 mi WSW 17.3 mph 31.1 mph N/A   Mostly Cloudy
5:15 AM 55.4 °F 42.8 °F 63% 29.83 in 6.2 mi WSW 19.6 mph 31.1 mph N/A   Partly Cloudy
5:45 AM 55.4 °F 42.8 °F 63% 29.83 in 6.2 mi WSW 20.7 mph 32.2 mph N/A   Partly Cloudy
6:15 AM 55.4 °F 44.6 °F 67% 29.83 in 6.2 mi WSW 19.6 mph 31.1 mph N/A   Scattered Clouds
6:45 AM 55.4 °F 44.6 °F 67% 29.80 in 6.2 mi WSW 18.4 mph - N/A   Partly Cloudy
7:00 AM 55 °F 45 °F 60% 29.82 in 10 mi WSW 19.6 mph - -   Scattered Clouds
7:15 AM 55.4 °F 44.6 °F 67% 29.80 in 6.2 mi WSW 18.4 mph - N/A   Scattered Clouds
7:45 AM 55.4 °F 44.6 °F 67% 29.80 in 5.6 mi WSW 19.6 mph - N/A   Scattered Clouds
8:15 AM 50.0 °F 44.6 °F 82% 29.83 in 5.6 mi West 13.8 mph - N/A Rain , Thunderstorm Light Thunderstorms and Rain
8:45 AM 51.8 °F 46.4 °F 82% 29.83 in 6.2 mi WNW 19.6 mph 31.1 mph N/A   Mostly Cloudy
9:15 AM 51.8 °F 42.8 °F 71% 29.83 in 6.2 mi WNW 25.3 mph 40.3 mph N/A   Scattered Clouds
9:45 AM 50.0 °F 41.0 °F 71% 29.83 in 6.2 mi WNW 20.7 mph - N/A   Scattered Clouds
10:15 AM 51.8 °F 42.8 °F 71% 29.83 in 5.6 mi WNW 17.3 mph 29.9 mph N/A   Scattered Clouds
10:45 AM 51.8 °F 44.6 °F 76% 29.83 in 6.2 mi NW 17.3 mph - N/A   Scattered Clouds
11:15 AM 53.6 °F 42.8 °F 67% 29.83 in 6.2 mi NW 25.3 mph 40.3 mph N/A   Scattered Clouds
11:45 AM 53.6 °F 41.0 °F 62% 29.83 in 6.2 mi NW 25.3 mph 39.1 mph N/A   Partly Cloudy
12:15 PM 53.6 °F 39.2 °F 58% 29.83 in 6.2 mi NW 26.5 mph 39.1 mph N/A   Scattered Clouds
12:45 PM 51.8 °F 37.4 °F 58% 29.83 in 6.2 mi WNW 18.4 mph - N/A   Partly Cloudy
1:00 PM 54 °F 40 °F 48% 29.83 in 12 mi WNW 23.0 mph - - Rain Light Rain Showers
1:15 PM 55.4 °F 41.0 °F 58% 29.80 in 6.2 mi WNW 21.9 mph - N/A   Scattered Clouds
1:45 PM 55.4 °F 39.2 °F 54% 29.80 in - WNW 24.2 mph 36.8 mph N/A   Clear
2:15 PM 55.4 °F 39.2 °F 54% 29.83 in 6.2 mi WNW 26.5 mph 39.1 mph N/A   Scattered Clouds
2:45 PM 55.4 °F 41.0 °F 58% 29.83 in 6.2 mi West 21.9 mph 35.7 mph N/A   Scattered Clouds
3:15 PM 55.4 °F 41.0 °F 58% 29.83 in 6.2 mi West 23.0 mph - N/A   Scattered Clouds
3:45 PM 53.6 °F 39.2 °F 58% 29.83 in 6.2 mi West 24.2 mph - N/A   Scattered Clouds
4:00 PM 55 °F 38 °F 42% 29.84 in 19 mi West 23.0 mph - -   Scattered Clouds
4:15 PM 55.4 °F 39.2 °F 54% 29.83 in 6.2 mi West 23.0 mph 34.5 mph N/A   Partly Cloudy
4:45 PM 55.4 °F 39.2 °F 54% 29.83 in 6.2 mi West 20.7 mph 38.0 mph N/A   Partly Cloudy
5:15 PM 55.4 °F 41.0 °F 58% 29.80 in 6.2 mi West 19.6 mph 31.1 mph N/A   Partly Cloudy
5:45 PM 55.4 °F 39.2 °F 54% 29.80 in 6.2 mi West 20.7 mph 32.2 mph N/A   Partly Cloudy
6:15 PM 55.4 °F 42.8 °F 63% 29.83 in 6.2 mi West 19.6 mph 36.8 mph N/A   Partly Cloudy
6:45 PM 57.2 °F 44.6 °F 63% 29.83 in 6.2 mi West 19.6 mph 31.1 mph N/A   Partly Cloudy
7:00 PM 57 °F 46 °F 58% 29.83 in 12 mi West 18.4 mph - -   Mostly Cloudy
7:15 PM 57.2 °F 46.4 °F 67% 29.83 in 6.2 mi West 20.7 mph 33.4 mph N/A   Mostly Cloudy
7:45 PM 57.2 °F 48.2 °F 72% 29.83 in 6.2 mi West 19.6 mph 32.2 mph N/A   Scattered Clouds
8:15 PM 57.2 °F 46.4 °F 67% 29.83 in 6.2 mi West 20.7 mph 32.2 mph N/A   Partly Cloudy
8:45 PM 57.2 °F 46.4 °F 67% 29.83 in 6.2 mi West 17.3 mph - N/A   Partly Cloudy
9:15 PM 57.2 °F 48.2 °F 72% 29.83 in 6.2 mi WSW 18.4 mph 32.2 mph N/A   Partly Cloudy
9:45 PM 57.2 °F 48.2 °F 72% 29.80 in 6.2 mi West 21.9 mph 36.8 mph N/A   Scattered Clouds
10:00 PM 57 °F 49 °F 67% 29.83 in 9 mi West 19.6 mph - -   Partly Cloudy
10:15 PM 57.2 °F 48.2 °F 72% 29.80 in - West 17.3 mph 29.9 mph N/A   Clear
10:45 PM 57.2 °F 46.4 °F 67% 29.80 in - West 19.6 mph 33.4 mph N/A   Clear
11:15 PM 57.2 °F 48.2 °F 72% 29.80 in - West 17.3 mph 29.9 mph N/A   Clear
11:45 PM 57.2 °F 46.4 °F 67% 29.80 in - West 17.3 mph 31.1 mph N/A   Clear